FW8351 Weather Reports


time (UTC)temp
C
wind
direction
speed
KPH
gust
KPH
rain 1hr
cm
rain 24hr
cm
rain mn
cm
humidity
%
barometer
mb
20260510064530 6 137 0.0 0.0 0.00 0.00 0.00 95 1010.0
20260510063105 6 131 0.0 1.6 0.00 0.00 0.00 95 1009.8
20260510061602 6 131 0.0 0.0 0.00 0.00 0.00 94 1010.0
20260510054538 6 190 0.0 0.0 0.00 0.00 0.00 94 1009.8
20260510053045 6 190 0.0 0.0 0.00 0.00 0.00 94 1009.7
20260510051520 6 190 0.0 0.0 0.00 0.00 0.00 94 1009.8
20260510050043 6 190 0.0 0.0 0.00 0.00 0.00 95 1009.8
20260510044519 6 190 0.0 0.0 0.00 0.00 0.00 94 1009.9
20260510043035 6 190 0.0 0.0 0.00 0.00 0.00 94 1009.9
20260510041519 6 190 0.0 0.0 0.00 0.00 0.00 93 1009.9
20260510040100 6 190 0.0 0.0 0.00 0.00 0.00 93 1009.9
20260510034536 7 190 0.0 0.0 0.00 0.00 0.00 94 1010.0
20260510033019 7 190 0.0 0.0 0.00 0.00 0.00 94 1010.1
20260510031553 7 190 0.0 0.0 0.00 0.00 0.00 94 1010.1
20260510030115 7 190 0.0 0.0 0.00 0.00 0.00 94 1010.1
20260510024537 7 191 0.0 0.0 0.00 0.03 0.00 94 1010.2
20260510023003 7 191 0.0 0.0 0.00 0.03 0.00 94 1010.3
20260510021507 7 310 0.0 0.0 0.00 0.03 0.00 94 1010.2
20260510020020 7 310 0.0 0.0 0.00 0.03 0.00 94 1010.2
20260510014536 7 310 0.0 0.0 0.00 0.03 0.00 94 1010.2
20260510013053 7 310 0.0 0.0 0.00 0.03 0.00 94 1010.0
20260510011552 7 310 0.0 0.0 0.00 0.03 0.00 94 1010.3
20260510010026 7 311 0.0 0.0 0.00 0.03 0.00 94 1010.5
20260510004525 7 311 0.0 0.0 0.00 0.03 0.00 94 1010.5
20260510003006 7 311 0.0 0.0 0.00 0.03 0.00 94 1010.6
20260510001538 7 310 0.0 0.0 0.00 0.03 0.00 94 1010.6
20260510000032 7 311 0.0 0.0 0.00 0.03 0.00 94 1010.8
20260509234534 7 311 0.0 0.0 0.00 0.03 0.00 94 1010.7
20260509233039 7 311 0.0 0.0 0.00 0.03 0.00 94 1011.1
20260509231522 7 310 0.0 0.0 0.00 0.03 0.00 94 1011.2
20260509230022 7 310 0.0 0.0 0.00 0.03 0.00 93 1011.2
20260509224543 7 310 0.0 0.0 0.00 0.03 0.00 93 1011.4
20260509223101 7 311 0.0 0.0 0.00 0.03 0.00 93 1011.3
20260509221559 7 278 0.0 0.0 0.00 0.03 0.00 93 1011.2
20260509220020 7 278 0.0 0.0 0.00 0.03 0.00 93 1011.1
20260509214551 7 278 0.0 0.0 0.00 0.03 0.03 93 1011.1
20260509213025 7 278 0.0 0.0 0.00 0.03 0.03 93 1011.0
20260509211543 7 278 0.0 0.0 0.00 0.03 0.03 93 1011.0
20260509210018 7 278 0.0 0.0 0.00 0.03 0.03 93 1011.0
20260509204607 7 278 0.0 0.0 0.00 0.03 0.03 92 1011.1
20260509203113 7 268 0.0 0.0 0.00 0.03 0.03 92 1010.9
20260509201557 7 83 0.0 0.0 0.00 0.03 0.03 92 1010.6
20260509200031 7 83 0.0 0.0 0.00 0.03 0.03 92 1010.2
20260509194505 7 357 0.0 0.0 0.00 0.03 0.03 92 1010.0
20260509193012 7 357 0.0 0.0 0.00 0.03 0.03 91 1009.7
20260509191547 7 357 0.0 0.0 0.00 0.03 0.03 91 1009.4
20260509190011 7 357 0.0 0.0 0.00 0.03 0.03 91 1009.3
20260509184519 7 357 0.0 0.0 0.00 0.03 0.03 90 1009.2
20260509183052 7 357 0.0 3.2 0.00 0.03 0.03 90 1009.2
20260509181526 8 340 0.0 0.0 0.00 0.03 0.03 89 1009.4
20260509180030 8 359 0.0 0.0 0.00 0.03 0.03 88 1009.7
20260509174501 8 214 0.0 0.0 0.00 0.03 0.03 87 1010.0
20260509173010 8 214 0.0 0.0 0.00 0.03 0.03 84 1010.2
20260509171601 9 214 0.0 3.2 0.00 0.03 0.03 84 1010.2
20260509170011 10 184 0.0 6.4 0.00 0.03 0.03 82 1010.1
20260509164536 11 278 0.0 16.1 0.00 0.03 0.03 78 1009.8
20260509163004 11 236 0.0 8.0 0.00 0.03 0.03 74 1009.5
20260509161558 11 260 0.0 4.8 0.00 0.03 0.03 72 1009.1
20260509160023 12 307 0.0 1.6 0.00 0.03 0.03 69 1008.7
20260509154522 12 283 0.0 0.0 0.00 0.03 0.03 67 1008.5
20260509153025 12 283 0.0 0.0 0.00 0.03 0.03 69 1008.6
20260509151530 12 283 0.0 0.0 0.00 0.03 0.03 68 1008.9
20260509150026 12 283 0.0 1.6 0.00 0.03 0.03 69 1009.2
20260509144526 12 155 0.0 3.2 0.00 0.03 0.03 66 1009.9
20260509143154 12 95 0.0 4.8 0.00 0.03 0.03 67 1010.0
20260509141517 13 207 0.0 1.6 0.00 0.03 0.03 67 1009.9
20260509140042 13 171 0.0 4.8 0.00 0.03 0.03 65 1010.2
20260509134527 13 208 1.6 6.4 0.00 0.03 0.03 66 1010.3
20260509133108 13 201 0.0 8.0 0.00 0.03 0.03 67 1010.1
20260509131542 13 240 0.0 3.2 0.00 0.03 0.03 65 1010.0
20260509130023 13 239 0.0 6.4 0.00 0.03 0.03 63 1010.5
20260509124600 13 252 0.0 11.3 0.00 0.03 0.03 64 1010.4
20260509123037 13 146 1.6 9.7 0.00 0.03 0.03 61 1010.7
20260509121544 13 201 0.0 8.0 0.00 0.03 0.03 61 1010.8
20260509120024 13 178 1.6 8.0 0.00 0.03 0.03 60 1010.8
20260509114552 13 293 1.6 9.7 0.00 0.03 0.03 60 1010.8
20260509113022 13 220 1.6 6.4 0.00 0.03 0.03 60 1010.8
20260509111619 13 91 1.6 22.5 0.00 0.03 0.03 62 1011.0
20260509110104 14 197 4.8 16.1 0.00 0.03 0.03 62 1011.3
20260509104611 14 239 3.2 24.1 0.00 0.03 0.03 63 1011.2
20260509103111 14 320 4.8 25.7 0.00 0.03 0.03 63 1011.3
20260509101558 14 311 6.4 22.5 0.00 0.03 0.03 65 1011.4
20260509100058 13 247 0.0 3.2 0.00 0.03 0.03 69 1011.0
20260509094535 13 253 0.0 0.0 0.00 0.03 0.03 74 1010.9
20260509093042 12 325 0.0 0.0 0.00 0.03 0.03 73 1011.0
20260509091505 12 255 0.0 1.6 0.00 0.03 0.03 76 1011.2
20260509090052 11 139 0.0 1.6 0.00 0.03 0.03 75 1010.9
20260509084517 11 189 0.0 1.6 0.00 0.03 0.03 77 1011.2
20260509083016 10 207 0.0 1.6 0.00 0.03 0.03 80 1011.0
20260509081523 9 228 0.0 0.0 0.00 0.03 0.03 83 1011.3
20260509080056 8 288 0.0 3.2 0.00 0.03 0.03 88 1011.4
20260509074558 7 217 0.0 0.0 0.00 0.03 0.03 88 1011.7
20260509073051 7 217 0.0 0.0 0.00 0.03 0.03 89 1011.6
20260509071528 6 217 0.0 0.0 0.00 0.03 0.03 90 1011.9
20260509070043 6 217 0.0 0.0 0.00 0.03 0.03 90 1012.4